Tacoma, WA
on Friday, February 15, 2013

Friday
Previous Day Next Day
Daily Summary
 ActualAverage (KSEA)Record (KSEA)
Temperature
Mean Temperature °F 43°F  
Max Temperature 53°F 50°F 65°F (1996)
Min Temperature 35°F 37°F 13°F (1956)
Degree Days
Heating Degree Days 21 22  
Month to date heating degree days 330  
Since 1 July heating degree days 2979  
Cooling Degree Days 0 0  
Month to date cooling degree days 0  
Year to date cooling degree days 0  
Moisture
Dew Point 41°F   
Average Humidity 95    
Maximum Humidity 100    
Minimum Humidity 70    
Precipitation
Precipitation 0.00 in 0.12 in 0.94 in (1970)
Month to date precipitation 1.94  
Year to date precipitation 7.51  
Snow
Snow 0.00 in in 2.30 in (1980)
Month to date snowfall  
Since 1 July snowfall  
Snow Depth in   
Wind
Wind Speed 3 mph   
Max Wind Speed 9 mph   
Max Gust Speed mph   
Visibility 7 miles   
Events     

Key: T is trace of precipitation, MM is missing value
Source: NWS Daily Summary
Time(PST)TemperatureDew PointHumidity Pressure Visibility Wind DirectionWind SpeedGust SpeedPrecipitationEvents Conditions
12:54 AM 46.4°F 46.4°F 100% 30.54 in 10.0 miles NNW 2.3 mph - N/A   Overcast
12:58 AM 46.0°F 45.7°F 99% 30.56 in 10.0 miles NNW 3.5 mph - N/A   Overcast
1:58 AM 45.7°F 45.5°F 99% 30.55 in 10.0 miles NNW 1.2 mph - N/A   Overcast
2:10 AM 46.4°F 46.4°F 100% 30.52 in 10.0 miles North 2.3 mph - N/A   Overcast
2:58 AM 45.9°F 45.7°F 99% 30.53 in 10.0 miles ENE 3.5 mph - N/A   Overcast
3:18 AM 46.4°F 46.4°F 100% 30.50 in 10.0 miles NE 3.5 mph - N/A   Overcast
3:20 AM 46.4°F 46.4°F 100% 30.50 in 10.0 miles NNE 2.3 mph - N/A   Overcast
3:55 AM 46.4°F 46.4°F 100% 30.50 in 10.0 miles NE 3.5 mph - N/A   Overcast
3:58 AM 45.9°F 45.7°F 99% 30.52 in 10.0 miles NE 3.5 mph - N/A   Overcast
4:28 AM 46.4°F 44.6°F 93% 30.49 in 10.0 miles NNE 3.5 mph - N/A   Overcast
4:53 AM 44.6°F 44.6°F 100% 30.48 in 8.0 miles NNE 6.9 mph - N/A   Overcast
4:58 AM 45.1°F 45.0°F 99% 30.50 in 9.0 miles NNE 6.9 mph - N/A   Overcast
5:08 AM 44.6°F 44.6°F 100% 30.48 in 10.0 miles North 6.9 mph - N/A   Overcast
5:33 AM 44.6°F 44.6°F 100% 30.48 in 10.0 miles North 5.8 mph - N/A   Overcast
5:58 AM 44.8°F 44.6°F 99% 30.49 in 10.0 miles North 8.1 mph - N/A   Overcast
6:13 AM 44.6°F 44.6°F 100% 30.47 in 10.0 miles North 6.9 mph - N/A   Overcast
6:33 AM 42.8°F 42.8°F 100% 30.47 in 10.0 miles North 9.2 mph - N/A   Overcast
6:43 AM 42.8°F 42.8°F 100% 30.47 in 10.0 miles NNE 6.9 mph - N/A   Overcast
6:58 AM 43.3°F 43.2°F 99% 30.49 in 10.0 miles NNE 4.6 mph - N/A   Overcast
7:28 AM 42.8°F 42.8°F 100% 30.47 in 9.0 miles ESE 2.3 mph - N/A   Overcast
7:38 AM 42.8°F 42.8°F 100% 30.47 in 8.0 miles Calm Calm - N/A   Overcast
7:58 AM 43.0°F 42.8°F 99% 30.48 in 7.0 miles Variable 2.3 mph - N/A   Overcast
8:23 AM 42.8°F 42.8°F 100% 30.46 in 8.0 miles NE 3.5 mph - N/A   Overcast
8:58 AM 43.2°F 43.0°F 99% 30.47 in 9.0 miles Variable 4.6 mph - N/A   Overcast
9:58 AM 43.5°F 43.2°F 99% 30.46 in 10.0 miles NE 3.5 mph - N/A   Overcast
10:23 AM 44.6°F 42.8°F 93% 30.44 in 10.0 miles NNE 5.8 mph - N/A   Overcast
10:43 AM 44.6°F 42.8°F 93% 30.43 in 10.0 miles NE 3.5 mph - N/A   Overcast
10:58 AM 44.4°F 42.6°F 93% 30.45 in 10.0 miles NNE 1.2 mph - N/A   Mostly Cloudy
11:13 AM 46.4°F 42.8°F 87% 30.43 in 10.0 miles Variable 6.9 mph - N/A   Mostly Cloudy
11:38 AM 48.2°F 42.8°F 82% 30.41 in 10.0 miles East 4.6 mph - N/A   Scattered Clouds
11:58 AM 48.2°F 42.8°F 82% 30.42 in 10.0 miles Variable 4.6 mph - N/A   Partly Cloudy
12:58 PM 50.7°F 42.8°F 74% 30.39 in 10.0 miles North 5.8 mph - N/A   Clear
1:58 PM 52.2°F 43.0°F 71% 30.34 in 10.0 miles NE 6.9 mph - N/A   Clear
2:58 PM 52.9°F 43.3°F 70% 30.32 in 10.0 miles North 6.9 mph - N/A   Clear
3:58 PM 53.4°F 44.1°F 71% 30.29 in 10.0 miles North 3.5 mph - N/A   Clear
4:58 PM 52.0°F 43.7°F 73% 30.27 in 10.0 miles NNE 5.8 mph - N/A   Clear
5:58 PM 49.1°F 42.6°F 78% 30.25 in 10.0 miles ENE 2.3 mph - N/A   Clear
6:58 PM 46.8°F 41.9°F 83% 30.25 in 10.0 miles Calm Calm - N/A   Clear
7:58 PM 40.3°F 39.0°F 95% 30.25 in 10.0 miles Calm Calm - N/A   Clear
8:58 PM 39.4°F 39.2°F 99% 30.25 in 6.0 miles Calm Calm - N/A   Clear
9:03 PM 39.2°F 39.2°F 100% 30.23 in 2.5 miles ESE 2.3 mph - N/A   Clear
9:08 PM 39.2°F 39.2°F 100% 30.23 in 3.0 miles ENE 3.5 mph - N/A   Clear
9:58 PM 38.3°F 38.1°F 99% 30.24 in 9.0 miles SE 2.3 mph - N/A   Clear
10:38 PM 37.4°F 37.4°F 100% 30.21 in 1.8 miles Calm Calm - N/A   Clear
10:43 PM 37.4°F 37.4°F 100% 30.20 in 1.2 miles South 2.3 mph - N/A   Clear
10:48 PM 39.2°F 37.4°F 93% 30.20 in 2.5 miles West 1.2 mph - N/A   Clear
10:53 PM 37.4°F 37.4°F 100% 30.21 in 5.0 miles Variable 1.2 mph - N/A   Clear
10:58 PM 38.1°F 37.8°F 99% 30.22 in 2.0 miles Variable 1.2 mph - N/A   Clear
11:03 PM 37.4°F 37.4°F 100% 30.20 in 1.0 miles Calm Calm - N/A   Clear
11:08 PM 37.4°F 37.4°F 100% 30.20 in 1.2 miles Calm Calm - N/A   Clear
11:13 PM 37.4°F 37.4°F 100% 30.20 in 3.0 miles SSW 1.2 mph - N/A   Clear
11:18 PM 35.6°F 35.6°F 100% 30.20 in 1.8 miles South 2.3 mph - N/A   Clear
11:23 PM 35.6°F 35.6°F 100% 30.20 in 1.2 miles South 3.5 mph - N/A   Clear
11:28 PM 35.6°F 35.6°F 100% 30.20 in 1.8 miles SSW 2.3 mph - N/A   Clear
11:33 PM 35.6°F 35.6°F 100% 30.19 in 2.0 miles SSW 2.3 mph - N/A   Clear
11:38 PM 35.6°F 33.8°F 93% 30.19 in 3.0 miles South 2.3 mph - N/A   Clear
11:43 PM 35.6°F 35.6°F 100% 30.19 in 1.5 miles Calm Calm - N/A   Clear
11:48 PM 35.6°F 35.6°F 100% 30.19 in 1.5 miles Calm Calm - N/A   Clear
11:53 PM 37.4°F 35.6°F 93% 30.18 in 1.0 miles Calm Calm - N/A   Clear
11:58 PM 36.5°F 36.3°F 99% 30.20 in 1.0 miles Calm Calm - N/A   Clear
Moon Phase
Feb. 15 Feb. 17 Feb. 25 Mar. 04 Mar. 11
Sunrise:07:14 AM (PST) Moon Rise:09:27 AM (PST)2/15
Sunset:05:34 PM (PST) Moon Set:No Moon Set/

Copyright © 2014 The Weather Underground, Inc.